Regional Weather Roundup
Issued by NWS

Home | Current Version | Previous Version | Graphics & Text | Print | Product List | Glossary On
Versions: 1 2 3 4 5 6 7 8 9 10 11 12 13 14 15 16 17 18 19 20 21 22 23 24 25 26 27 28 29 30 31 32 33 34 35 36 37 38 39 40 41 42 43 44 45 46 47 48 49 50
803
ASUS43 KDTX 091601
RWRMI
MICHIGAN HOURLY REGIONAL WEATHER ROUNDUP
NATIONAL WEATHER SERVICE DETROIT/PONTIAC MI
1100 AM EST TUE FEB 09 2016

NOTE: "FAIR" INDICATES FEW OR NO CLOUDS BELOW 12,000 FEET WITH NO
SIGNIFICANT WEATHER AND/OR OBSTRUCTION TO VISIBILITY.

MIZ047>049-052>055-059>063-066>070-074>076-081>083-091700-
SOUTHEAST LOWER MICHIGAN

CITY           SKY/WX    TMP DP  RH WIND       PRES   REMARKS
ADRIAN         LGT SNOW  29  23  78 NW14G23   29.61S WCI  18
ALMA           CLOUDY    27  22  82 W16       29.63S WCI  14
ANN ARBOR      LGT SNOW  29  24  82 NW14G22   29.59S WCI  18
BAD AXE        LGT SNOW  28  26  92 NW14      29.52S WCI  17
CARO           CLOUDY    27  25  93 W9        29.55S VSB 1/2 WCI  17
DETROIT CITY   LGT SNOW  30  25  81 NW16G22   29.57S WCI  19
DETROIT        LGT SNOW  31  26  82 W12       29.59S WCI  22
FLINT          SNOW      28  23  81 W20       29.59R VSB 1/2 WCI  15
GROSSE ILE     LGT SNOW  32  28  86 W10       29.57S WCI  24
HILLSDALE      CLOUDY    26  23  88 NW15      29.61S WCI  14
HOWELL         LGT SNOW  27  24  89 W14G21    29.60R WCI  15

CITY           SKY/WX    TMP DP  RH WIND       PRES   REMARKS
JACKSON        LGT SNOW  26  21  81 NW16      29.62R WCI  14
LAMBERTVILLE   LGT SNOW  31  29  90 NW6       29.61S WCI  25
LANSING        CLOUDY    25  20  81 W16       29.63S WCI  12
LAPEER         LGT SNOW  27  25  93 W7        29.56R WCI  19
MASON          LGT SNOW  26  22  87 NW14      29.62R WCI  14
MONROE         LGT SNOW  32  28  84 NW9G17    29.59S WCI  24
MT. CLEMENS    LGT SNOW  29  27  90 W13       29.54S FOG     WCI  19
PONTIAC        LGT SNOW  27  23  85 W18       29.55S VSB 1   WCI  14
PORT HOPE        N/A     30  28  92 NW20G29   29.48F WCI  17
PORT HURON     LGT SNOW  28  27  93 W8        29.53S VSB 1   WCI  20
TRI CITIES     HVY SNOW  28  23  81 W17       29.59S VSB 1/4 WCI  16
MIDLAND        LGT SNOW  27  24  89 W12G17    29.59S VSB 1   WCI  17
TROY           LGT SNOW  30  26  85 W10G20    29.58S WCI  21
SAGINAW HB     LGT SNOW  28  27  93 W15       29.58S VSB 1   WCI  17
$$
MIZ043>046-050>051-056>058-064>065-071>073-077>080-091700-
SOUTHWEST LOWER MICHIGAN

CITY           SKY/WX    TMP DP  RH WIND       PRES   REMARKS
BATTLE CREEK   CLOUDY    26  18  71 NW16G25   29.66R WCI  14
BENTON HARBOR  LGT SNOW  26  19  74 NW12G22   29.74R WCI  16
BIG RAPIDS     CLOUDY    24  22  91 N13       29.64S WCI  13
COLDWATER      CLOUDY    28  22  80 NW13      29.65R WCI  17
FREMONT        CLOUDY    25  20  82 NW13      29.68R WCI  14
HOLLAND        LGT SNOW  26  20  77 NW12G17   29.71S WCI  16
GRAND RAPIDS   FLURRIES  26  19  74 NW16      29.67R WCI  14
IONIA          CLOUDY    26  20  79 NW16      29.64S WCI  13
KALAMAZOO      CLOUDY    27  19  72 NW20G25   29.67R WCI  13
LUDINGTON      LGT SNOW  23  19  85 N12G24    29.72R WCI  12
MARSHALL       CLOUDY    26  20  79 NW9       29.64R WCI  17
MOUNT PLEASANT CLOUDY    28  21  76 NW10G16   29.61S HAZE    WCI  18
MUSKEGON       CLOUDY    27  17  66 NW13G23   29.70F WCI  16
SOUTH HAVEN    CLOUDY    27  21  79 NW12G21   29.73R WCI  16
$$
MIZ016>042-091700-
NORTHERN LOWER MICHIGAN

CITY           SKY/WX    TMP DP  RH WIND       PRES   REMARKS
ALPENA         MIX PCPN  28  23  81 NW10G20   29.56S WCI  19
BEAVER ISLAND  CLOUDY    23  20  89 NW12G20   29.66S WCI  12
BELLAIRE       LGT SNOW  26  21  82 NW7       29.66S WCI  18
CADILLAC       CLOUDY    24  19  83 NW14G22   29.61S WCI  11
CHARLEVOIX     LGT SNOW  25  22  88 NW13G18   29.68S WCI  14
FRANKFORT      LGT SNOW  24  19  81 NW10G20   29.70S WCI  13
GAYLORD        LGT SNOW  24  19  81 NW8G18    29.57F WCI  15
GRAYLING       LGT SNOW  24  19  80 NW14      29.60S WCI  12
HARBOR SPRINGS LGT SNOW  26  22  85 W6        29.63S WCI  19
HOUGHTON LAKE  LGT SNOW  25  20  81 NW15G22   29.59S WCI  13
MANISTEE       CLOUDY    25  18  74 N13G21    29.71R WCI  13
OSCODA         LGT SNOW  26  24  91 NW14G23   29.53R VSB 3/4 WCI  15
PELLSTON       FLURRIES  25  21  85 NW15      29.62F WCI  13
ROGERS CITY    LGT SNOW  28  25  88 NW12      29.59S WCI  18
TRAVERSE CITY  FLURRIES  26  19  74 NW14      29.66S WCI  14
$$
MIZ007>008-015-091700-
EASTERN UPPER MICHIGAN

CITY           SKY/WX    TMP DP  RH WIND       PRES   REMARKS
KINROSS        CLOUDY    27  25  93 NW15      29.59R WCI  15
MACKINAC ISLAN LGT SNOW  25  24  99 NW10G16   29.61R WCI  14
NEWBERRY       CLOUDY    20  17  88 NW14G21   29.65R WCI   7
S. S. MARIE    LGT SNOW  26  19  74 N7        29.60S WCI  18
$$
MIZ004>006-011>014-085-091700-
CENTRAL UPPER MICHIGAN

CITY           SKY/WX    TMP DP  RH WIND       PRES   REMARKS
MANISTIQUE     FLURRIES  21  15  75 N20G25    29.69R WCI   6
ESCANABA       CLOUDY    18   9  68 NW16G23   29.75R WCI   3
MENOMINEE      CLOUDY    16   5  62 N14G25    29.78S WCI   1
SAWYER-GWINN   LGT SNOW  12  10  92 N17G24    29.72S VSB 1   WCI  -5
$$
MIZ001>003-009>011-084-091700-
WESTERN UPPER MICHIGAN

CITY           SKY/WX    TMP DP  RH WIND       PRES   REMARKS
IRON MOUNTAIN  LGT SNOW  12   3  67 NW18G26   29.77S WCI  -6
HOUGHTON       HVY SNOW  11   5  77 N17G26    29.85R VSB 1/4 WCI  -6
COPPER HARBOR    N/A     16  13  88 NE25G36   29.85R WCI  -3
IRONWOOD       CLOUDY    10   7  85 N15G23    29.91R WCI  -6
$$

ABBREVIATIONS USED IN REMARKS
   TC - TEMPERATURE IN CELSIUS
  WCI - WIND CHILL INDEX
   HX - HEAT INDEX
  VSB - VISIBILITY





USA.gov is the U.S. government's official web portal to all federal, state and local government web resources and services.